ECMWFFLT2_250_spd_009.txt.gz
Wind_Speed
90 90 89 87 85 80 76 75 72 69 66 62 61 61 64 67 69 70 70 67 65 66 67 67 67 67 66 62 59 56 54 55 56 55 53 51 47 45 44 46 47 46 44 41 38 36 34 33 33 34 35 36 37 37 36 33 32 34 33 31 28 27
87 86 85 84 82 81 80 78 74 69 66 64 64 66 68 69 69 67 65 65 67 68 67 67 67 65 60 57 57 55 54 54 55 53 50 48 47 45 45 46 46 45 44 41 38 35 33 33 33 33 34 36 39 38 35 32 33 34 33 33 30 28
77 77 77 77 77 75 74 71 68 67 68 70 71 70 69 67 66 66 66 68 68 67 67 66 62 57 55 55 56 55 54 54 53 51 49 47 46 46 47 48 47 46 43 41 38 36 35 34 32 33 35 38 40 37 34 31 33 35 34 35 33 30
70 70 70 69 67 65 64 63 63 66 69 70 70 69 68 66 66 68 68 66 65 65 63 59 55 53 54 54 56 56 56 54 51 48 46 45 46 49 51 50 48 46 44 42 40 38 38 35 32 33 36 39 38 36 35 33 35 36 35 35 34 31
69 65 64 63 61 60 61 63 65 66 66 65 65 65 64 66 67 67 65 63 63 62 57 54 54 55 55 56 57 54 50 48 46 46 45 45 48 52 54 53 49 47 46 44 42 41 40 36 34 35 38 39 35 33 34 35 37 38 36 36 35 32
67 63 62 63 64 65 67 68 68 67 66 66 65 65 66 67 66 64 64 65 64 59 54 55 56 57 58 59 57 51 45 44 45 47 47 49 52 55 54 51 48 47 47 44 42 43 41 38 38 39 39 38 36 35 35 35 37 39 38 36 35 34
66 64 65 66 68 69 69 68 67 68 70 71 69 69 69 67 63 64 69 69 63 57 57 59 58 60 60 58 55 51 50 50 51 53 54 55 55 55 52 49 49 49 46 43 45 46 44 42 42 42 40 39 40 40 39 37 37 39 39 38 35 34
67 67 67 66 67 68 68 68 66 67 70 70 70 69 68 66 65 67 68 65 61 61 64 62 60 61 61 60 58 57 57 58 59 59 58 57 56 54 52 52 51 48 45 46 50 50 48 47 46 43 41 41 43 42 41 38 37 38 39 38 35 34
70 69 70 70 69 67 67 69 69 69 70 70 68 65 65 65 65 64 61 62 66 68 66 64 64 65 65 64 64 64 62 61 62 61 58 57 57 56 54 52 50 47 48 51 53 50 49 49 47 45 43 43 43 40 38 36 35 37 37 36 34 32
74 73 74 74 70 68 66 66 68 69 68 66 64 62 64 65 63 60 58 64 70 68 64 64 64 63 64 64 65 65 64 63 63 60 58 58 58 56 53 50 48 48 51 54 52 49 49 50 47 46 44 43 41 37 34 33 33 35 35 33 32 31
74 75 75 72 67 64 62 62 63 63 63 64 65 66 67 67 65 61 60 63 65 62 59 60 63 64 63 64 64 64 64 63 62 60 59 59 58 56 53 49 49 52 54 54 51 50 51 51 48 46 44 42 39 35 33 33 34 35 34 32 32 33
72 72 72 71 68 65 64 63 64 64 66 69 71 72 71 70 70 69 67 66 65 61 58 61 64 65 64 63 63 61 59 58 59 61 61 60 59 57 54 52 53 55 53 52 52 52 53 51 48 45 42 42 39 36 35 35 35 35 34 33 33 34
70 69 70 70 70 70 71 72 72 72 73 73 74 74 73 73 72 72 71 69 67 62 59 61 60 59 60 61 61 59 58 59 60 62 61 58 56 55 55 56 57 56 53 54 55 54 51 49 47 44 43 42 39 37 36 36 35 35 34 34 34 33
69 68 69 71 72 73 75 77 77 75 74 73 73 73 72 72 71 71 71 69 67 64 61 60 58 57 58 60 62 62 61 61 61 60 57 54 53 55 59 61 60 59 58 58 57 54 50 48 47 45 43 39 36 35 34 33 33 33 33 34 34 33
68 68 70 71 72 72 73 74 73 72 72 72 72 72 72 72 72 72 71 69 67 64 61 59 59 60 61 61 62 62 61 59 58 57 55 55 57 61 64 63 60 59 59 58 56 53 50 47 46 44 39 34 32 33 31 30 30 31 31 33 33 33
64 63 63 64 66 66 67 68 68 68 69 70 72 73 74 75 75 72 69 67 65 62 60 60 61 61 60 59 59 59 57 55 56 57 59 62 63 63 61 58 56 57 57 56 54 51 47 45 43 39 35 31 30 30 29 28 29 30 30 32 33 33
61 59 58 58 60 61 63 64 66 67 69 71 73 74 76 75 73 71 69 65 62 60 57 55 56 54 51 52 54 55 56 57 60 64 67 68 64 60 57 55 56 56 55 54 52 48 45 44 41 36 32 31 30 30 29 28 28 30 31 32 34 35
60 60 59 59 60 62 64 66 68 70 71 72 72 72 72 70 67 65 64 61 57 55 54 50 46 43 43 48 52 56 61 64 66 68 68 67 64 61 60 59 58 54 52 52 50 46 44 43 40 35 31 31 31 31 30 29 29 30 32 34 35 36
59 59 60 62 63 64 65 66 68 69 70 68 66 63 61 59 56 54 54 54 52 52 53 54 52 49 52 59 62 65 67 64 62 63 65 66 66 65 64 62 58 53 51 50 47 45 43 41 39 35 33 33 32 32 30 30 30 31 33 34 36 36
58 59 61 63 64 65 65 65 65 65 63 59 54 50 49 47 46 46 47 48 48 49 52 56 59 61 65 68 68 68 67 65 64 64 66 67 67 66 64 60 56 52 49 47 45 44 43 41 38 36 35 35 34 34 32 31 30 32 33 34 35 35
59 60 60 61 61 62 62 61 58 54 51 48 45 43 43 43 41 41 43 43 44 46 49 52 56 59 62 64 64 64 65 66 67 66 65 65 64 62 59 56 54 51 49 46 44 44 43 40 38 35 35 36 36 36 34 32 31 31 34 35 34 34
57 56 55 56 56 56 55 52 47 43 43 43 43 42 41 41 39 38 39 41 41 42 45 47 49 52 54 56 57 58 60 61 60 59 59 58 57 56 54 53 51 50 48 46 46 45 42 39 36 35 35 35 35 36 35 34 33 32 34 36 35 34
52 51 50 50 50 48 46 43 40 40 41 42 43 42 40 39 38 37 37 38 39 39 40 42 44 45 47 49 50 51 53 53 53 52 52 52 51 51 50 49 48 48 48 48 48 46 43 40 36 36 36 35 35 35 34 35 34 32 34 38 39 38
49 47 46 44 43 42 41 40 40 40 41 42 42 42 40 39 38 37 36 36 36 37 37 38 39 40 41 42 43 45 46 46 47 46 46 46 46 47 46 46 46 46 47 48 49 48 45 41 38 38 38 36 35 34 34 35 34 32 34 38 42 41
43 42 42 41 39 38 38 40 41 41 42 42 41 41 41 40 39 38 37 35 35 35 35 36 36 36 36 37 38 39 40 41 41 42 42 43 43 44 44 44 44 44 46 48 49 47 44 40 39 39 39 37 35 34 36 36 35 33 34 37 41 43
40 39 37 36 36 37 39 42 43 42 43 43 42 41 41 41 40 39 37 36 34 34 34 34 34 33 33 33 34 35 36 37 37 38 39 40 40 41 42 43 44 44 45 47 48 45 41 39 38 38 38 36 34 34 37 40 38 35 35 37 40 41
37 33 31 34 38 41 45 48 47 44 43 44 43 41 40 40 41 40 38 36 35 34 33 33 33 32 31 31 32 33 34 35 36 36 37 37 38 39 40 41 42 43 44 45 45 43 40 39 38 37 38 37 35 35 37 41 42 39 37 39 40 40
34 30 30 33 37 40 43 46 46 44 43 43 43 42 41 40 40 40 39 37 35 34 33 33 33 32 31 30 31 31 32 33 34 34 35 35 36 36 37 38 39 40 41 43 44 42 42 41 39 39 39 37 36 36 37 39 41 40 38 40 42 42
34 34 33 31 32 34 36 38 40 41 42 42 41 42 42 41 40 40 40 38 36 34 34 33 33 32 31 30 29 29 29 30 31 32 33 33 34 34 34 35 37 38 39 40 42 42 43 44 42 41 40 37 36 37 37 37 38 39 39 40 42 44
38 39 37 34 32 32 35 39 41 42 43 43 43 44 44 43 41 40 40 39 37 35 34 34 34 33 31 30 29 28 28 28 29 29 31 32 32 33 33 33 34 35 36 37 39 40 43 46 45 44 42 40 38 38 39 39 39 40 41 41 42 44
42 42 39 36 34 35 40 45 46 46 47 46 46 45 44 43 42 41 41 40 39 37 36 35 35 34 33 31 30 30 29 29 29 29 30 31 31 32 32 33 33 34 34 35 36 38 41 46 48 47 45 43 42 42 42 42 41 42 42 42 42 43
47 45 42 39 39 41 45 46 46 46 47 47 46 44 42 43 43 42 41 41 40 39 38 36 35 35 34 34 33 32 32 31 32 32 32 33 33 33 33 33 33 34 34 34 34 35 38 43 48 49 49 47 46 44 45 46 44 42 42 42 42 43
47 47 47 46 46 44 44 45 45 45 45 47 46 44 42 42 43 43 42 42 42 41 40 39 37 36 36 35 35 34 34 35 35 35 35 35 35 36 35 35 34 34 34 34 34 34 36 39 44 48 49 50 50 48 47 48 46 43 42 43 42 43
41 43 44 45 45 45 44 45 45 44 44 46 45 44 43 42 43 44 43 44 45 44 43 41 40 38 37 37 37 37 37 37 37 37 37 37 36 36 36 37 37 37 36 35 34 34 35 36 39 43 47 50 52 52 49 49 48 44 43 44 44 44
37 40 43 46 46 47 48 47 45 43 42 43 44 43 44 43 43 45 45 45 46 46 46 45 43 42 40 40 39 39 39 39 38 39 39 39 38 36 36 36 38 39 39 38 38 37 36 36 37 39 43 46 50 52 52 50 49 47 45 46 46 45
38 39 44 50 50 48 51 51 48 44 42 42 44 44 44 44 43 44 46 46 47 48 48 48 47 46 44 43 42 42 42 42 41 41 41 41 40 39 38 37 37 38 39 40 41 41 40 40 39 39 40 43 46 49 51 51 50 49 48 47 49 49
42 42 43 51 52 50 52 55 54 49 44 42 43 43 44 44 44 45 47 47 47 48 49 49 49 49 48 46 46 45 45 45 44 44 43 42 42 42 41 40 40 39 39 40 41 42 43 43 42 42 41 42 43 46 49 50 50 50 50 50 50 52

ECMWFFLT2_250_spd_015.txt.gz
Wind_Speed
91 91 92 90 87 85 84 82 78 73 73 72 71 66 60 58 57 57 57 56 54 52 51 50 50 50 50 51 50 48 47 47 49 51 52 52 52 51 48 47 48 46 46 44 40 39 39 39 40 40 40 39 38 37 36 36 35 31 27 25 28 31
92 92 91 86 84 84 81 78 75 71 68 69 69 64 60 59 58 58 58 57 55 53 53 52 51 51 52 52 51 51 50 49 51 52 51 50 49 48 48 49 48 47 46 43 41 41 40 40 40 39 40 40 39 39 38 38 36 34 29 26 27 31
91 90 88 85 85 87 82 77 78 78 76 76 75 68 62 60 58 58 58 58 57 55 54 53 53 53 54 53 53 52 50 49 50 50 49 47 47 49 50 49 48 48 46 43 43 43 42 41 39 38 40 41 41 41 40 39 38 36 33 29 28 31
88 87 87 87 86 86 84 83 85 85 83 80 75 68 64 63 63 63 63 62 60 57 54 54 54 54 54 53 52 51 48 48 48 49 49 49 50 51 50 48 48 48 45 43 45 45 44 41 37 38 41 42 42 42 41 41 41 40 37 32 30 32
83 83 85 85 83 82 82 83 83 82 79 75 71 69 69 71 71 69 67 64 61 58 56 55 54 54 53 52 50 49 49 50 49 49 50 51 51 50 49 48 48 47 45 46 47 46 44 40 37 38 41 43 44 44 43 43 44 44 41 36 33 33
78 79 80 81 80 78 77 77 76 75 74 72 72 74 75 74 72 68 64 61 59 57 56 54 53 53 51 50 50 51 52 51 49 47 48 50 50 50 49 49 48 47 48 49 48 46 42 39 37 38 42 45 45 46 45 45 47 47 43 39 37 35
75 76 77 77 76 75 74 73 72 71 71 72 73 74 74 72 68 64 62 60 58 57 55 53 52 52 51 51 51 51 51 49 48 47 48 49 50 50 50 49 48 49 49 50 48 44 39 38 37 39 43 46 47 47 47 49 50 48 43 41 40 37
72 73 74 75 74 73 72 71 71 70 69 70 70 70 69 67 65 64 62 61 59 57 55 53 53 53 53 52 51 50 49 48 48 48 48 49 50 51 50 49 48 49 50 50 48 43 39 38 38 41 44 48 50 49 51 52 51 47 44 43 41 39
70 72 72 72 72 71 71 70 70 70 69 69 68 67 65 64 64 64 63 62 61 57 55 54 54 54 52 51 50 48 47 47 47 47 49 50 51 51 49 48 48 49 50 51 49 46 44 42 43 46 48 51 53 53 53 51 48 47 45 44 42 40
69 70 70 71 71 70 71 71 70 69 70 69 67 66 64 63 63 64 63 62 59 55 51 49 50 51 50 50 49 49 49 49 49 50 53 54 54 53 51 49 49 50 50 51 51 51 50 49 50 51 51 53 54 54 52 48 48 47 46 45 43 42
67 68 68 69 70 70 71 71 70 69 69 68 67 65 63 62 61 60 59 57 53 49 46 44 45 50 51 51 52 51 51 52 52 54 55 57 56 55 53 52 52 51 51 52 53 54 54 54 54 52 51 52 52 51 49 49 49 48 47 45 44 45
65 66 67 68 69 70 70 70 70 69 68 67 64 61 59 57 56 56 54 52 50 48 47 45 47 52 54 53 53 53 52 53 54 55 55 56 56 56 55 54 54 53 53 53 54 55 54 54 53 51 50 49 49 48 49 50 50 49 47 46 46 47
65 65 66 67 67 68 69 69 69 68 67 65 61 58 56 54 53 52 51 50 50 50 50 50 50 53 53 53 52 52 52 52 53 55 55 56 57 58 57 56 55 55 55 55 54 54 53 52 51 49 47 46 47 48 49 50 50 49 48 48 48 48
64 65 65 66 66 67 67 68 68 67 66 64 61 58 55 53 51 49 48 48 48 49 49 49 49 50 50 50 50 50 51 51 53 55 56 58 60 61 60 60 58 57 56 54 53 52 51 50 48 45 43 44 46 47 47 48 49 49 49 49 48 49
63 64 64 65 65 65 65 66 66 66 66 64 62 59 57 55 53 51 50 49 48 47 47 47 47 48 48 49 49 50 51 52 54 56 59 61 62 62 61 60 57 55 53 52 51 49 47 45 44 44 42 41 43 44 45 47 48 48 48 48 47 50
60 61 62 62 63 63 62 63 64 65 65 64 63 63 61 59 58 57 56 55 53 51 50 51 50 51 51 51 52 53 54 56 59 61 61 59 57 55 54 54 53 50 50 49 48 46 44 43 43 45 43 42 42 43 45 47 48 48 49 48 48 47
56 56 57 57 58 59 59 59 61 62 63 63 64 65 65 64 63 62 61 59 57 55 55 55 55 54 54 54 54 54 56 55 54 52 48 46 45 42 44 49 49 47 47 46 45 44 43 44 44 45 45 44 42 44 47 49 49 49 48 48 48 46
51 52 52 53 54 54 54 55 57 58 59 59 61 62 63 63 61 60 58 57 56 55 54 54 55 55 55 55 54 55 55 49 43 40 39 38 35 34 40 47 46 45 44 43 42 42 42 44 45 45 45 44 43 42 41 43 44 43 44 46 48 46
48 48 49 50 50 50 51 51 51 51 50 50 51 51 51 52 51 51 51 51 51 51 51 51 52 52 53 53 53 53 51 44 41 42 40 35 31 33 41 46 45 43 43 42 42 42 43 45 46 46 46 46 45 43 41 42 44 44 46 48 47 45
44 45 46 46 47 47 47 46 45 44 43 42 43 43 44 45 46 47 48 50 50 50 50 50 50 50 50 49 48 46 43 39 38 38 36 35 35 36 38 42 45 44 43 42 43 44 44 46 47 47 47 47 48 49 50 51 50 50 51 49 46 46
42 43 44 45 45 45 44 42 42 41 41 42 43 44 45 46 47 48 49 50 50 49 49 49 48 48 46 44 42 39 37 35 33 32 33 35 37 38 35 34 39 43 44 44 46 47 47 48 50 50 51 50 48 49 51 53 53 53 52 48 45 45
41 42 43 43 42 42 40 39 39 40 42 43 45 47 48 48 49 49 49 49 49 49 49 48 47 45 43 40 37 34 33 33 32 30 31 33 36 38 36 33 36 45 47 47 48 48 49 50 50 49 50 51 50 49 51 53 52 49 47 45 42 42
40 40 41 41 41 40 40 40 40 42 44 46 47 48 48 48 48 48 49 49 49 49 48 47 45 43 40 36 34 33 32 32 31 30 29 31 34 36 38 39 43 49 50 49 49 49 49 50 50 49 48 50 51 51 50 50 47 41 38 39 38 40
39 38 39 40 41 42 42 42 43 44 46 47 48 48 48 48 48 47 47 47 47 46 46 45 43 39 36 33 33 32 32 31 31 30 30 30 31 33 35 37 41 45 47 48 48 45 42 40 40 41 41 41 42 42 41 40 39 36 34 34 36 39
41 40 40 41 42 42 43 43 44 44 45 46 47 47 48 48 47 47 46 46 45 44 43 41 39 36 33 31 30 30 30 31 31 31 31 30 30 30 31 31 33 35 36 38 38 35 33 30 27 28 32 33 33 33 34 33 31 31 31 32 34 36
43 43 44 45 45 45 44 44 43 43 43 44 45 46 47 47 47 46 46 45 43 41 39 38 36 34 31 29 28 29 30 31 32 32 31 30 30 29 29 29 29 28 28 30 29 28 28 25 22 25 30 33 33 32 31 30 29 29 31 32 33 34
45 46 47 48 49 49 48 47 46 45 44 45 46 47 46 46 46 45 44 43 42 40 37 35 33 32 30 30 29 29 30 31 32 32 32 31 30 28 28 27 27 26 27 27 27 26 24 20 20 26 31 32 32 31 30 29 28 29 32 33 34 34
46 47 48 50 51 52 52 51 50 49 48 48 49 49 47 45 44 43 43 42 41 38 34 31 29 29 29 30 30 29 29 30 31 32 31 31 30 28 27 26 26 26 27 27 26 25 23 22 24 27 29 29 29 29 29 29 28 30 33 34 35 34
45 47 49 51 52 53 53 53 52 52 51 51 50 49 47 44 42 42 41 40 38 35 32 29 28 28 28 29 29 29 29 30 30 30 31 30 29 28 26 26 26 26 27 27 26 25 24 24 24 25 25 25 26 27 28 29 29 30 32 35 36 36
46 47 48 49 51 52 53 53 52 52 52 51 50 48 46 44 42 42 41 39 38 35 32 31 30 29 28 28 28 29 29 30 30 31 31 30 29 28 27 25 25 26 26 27 26 25 24 24 24 24 25 24 24 25 26 28 29 31 33 36 37 37
46 47 47 48 49 50 52 52 52 52 52 51 50 48 46 45 43 43 42 41 39 38 36 35 34 33 31 31 30 30 30 30 31 31 32 31 31 29 28 26 25 25 26 26 26 25 24 24 24 25 25 25 25 25 25 27 29 31 33 36 38 38
43 44 45 46 48 49 51 52 51 51 51 50 49 48 47 45 44 44 43 43 42 42 41 39 39 38 36 34 33 32 32 32 33 33 33 33 32 31 30 29 28 26 25 26 26 26 25 25 24 25 25 26 26 26 26 27 28 30 33 36 39 39
38 40 41 42 44 46 48 49 49 46 45 44 42 42 43 43 43 44 44 44 44 44 44 44 43 42 41 39 37 35 34 34 34 34 34 33 33 32 32 32 31 29 28 27 27 27 27 27 26 26 25 26 26 27 27 28 28 29 31 35 39 41
36 37 38 38 39 42 44 46 46 43 41 39 38 37 37 37 39 42 44 45 46 46 46 46 46 46 45 44 41 39 37 36 36 35 34 33 33 33 34 34 34 33 31 29 29 29 29 29 29 28 28 27 27 27 27 28 29 29 30 33 37 41
36 36 36 36 36 39 42 43 44 44 43 42 42 40 38 36 35 37 40 43 45 47 47 47 47 48 48 46 44 43 41 39 38 37 35 33 33 34 35 36 36 35 34 33 32 31 31 32 32 31 30 30 29 29 28 28 28 29 30 32 34 39
38 35 35 34 34 39 43 43 43 43 45 46 46 45 43 41 38 36 37 39 41 44 46 47 48 49 49 48 46 44 43 42 40 39 38 36 35 36 36 37 37 37 36 36 35 34 34 33 33 33 33 32 32 32 31 29 28 29 30 31 33 35
39 35 34 33 35 41 45 46 45 45 46 49 49 49 48 47 44 41 39 39 39 41 43 44 46 47 47 46 45 44 43 42 41 41 40 40 39 39 38 37 37 37 37 37 37 37 37 36 36 35 35 34 34 34 34 34 32 30 29 30 32 33

ECMWFFLT2_250_spd_021.txt.gz
Wind_Speed
84 83 82 82 81 80 79 78 77 79 83 83 82 81 81 80 78 76 75 73 71 67 64 61 59 56 53 50 48 45 43 43 41 41 40 37 36 36 38 39 41 40 39 39 38 37 37 35 33 30 29 30 31 32 32 30 28 27 27 27 26 25
82 81 80 79 78 78 76 75 76 77 78 78 78 79 79 77 75 73 71 70 68 64 62 59 56 55 51 49 48 46 44 44 43 42 41 40 38 37 36 36 38 38 38 37 35 35 36 35 31 28 29 30 32 32 31 30 29 28 28 28 26 26
78 77 77 76 76 76 74 71 71 71 72 76 78 79 78 74 72 71 69 67 65 62 60 59 55 54 52 50 49 47 46 45 44 43 40 37 35 34 34 34 35 36 36 35 34 34 35 33 29 27 29 30 32 32 32 31 29 29 29 28 27 26
75 75 74 72 70 70 69 67 67 69 72 76 77 77 75 72 71 70 68 65 63 61 59 58 55 53 53 50 49 48 46 45 44 41 37 33 33 33 33 32 32 33 33 33 34 34 32 30 28 28 29 31 32 33 33 33 32 31 30 29 28 26
73 72 70 67 66 66 67 66 68 69 71 73 73 72 72 70 69 68 67 64 62 61 58 57 56 53 52 50 48 47 46 45 44 41 38 36 35 34 32 31 31 32 32 32 32 31 30 30 29 29 30 32 33 34 34 35 34 32 31 30 29 27
69 68 66 65 64 66 66 65 65 66 66 68 68 68 69 68 67 66 65 63 61 59 57 56 54 53 52 50 48 47 46 45 44 42 41 38 35 33 32 32 33 33 31 30 29 29 30 31 31 31 32 33 34 35 35 35 34 33 32 32 30 28
64 63 62 62 62 61 61 60 60 62 63 64 66 67 67 66 66 64 63 62 60 58 56 54 53 51 50 49 47 46 45 44 43 42 41 37 33 30 30 31 32 30 27 26 27 29 31 32 32 32 33 33 34 35 35 35 35 35 34 33 32 29
61 61 60 59 58 55 54 56 57 60 62 62 64 64 64 64 64 62 61 60 58 56 54 52 50 49 48 47 46 45 44 42 41 39 37 34 30 29 29 29 28 26 26 27 28 29 31 33 33 32 33 34 35 35 36 37 37 36 36 35 33 30
60 60 59 58 58 56 55 59 60 62 62 62 62 62 61 61 61 60 58 57 55 54 51 49 48 47 45 43 42 41 40 38 35 33 31 30 29 28 28 28 27 27 28 28 28 29 30 32 33 33 34 34 35 36 37 38 38 38 38 37 34 32
60 60 60 59 59 59 59 60 61 61 61 60 60 59 59 58 58 56 54 53 51 50 48 47 45 42 40 38 36 35 34 33 30 28 28 27 27 28 28 28 28 27 27 27 27 28 28 30 32 34 34 36 38 38 39 40 40 40 40 38 36 36
60 60 60 60 59 59 58 58 58 59 58 58 58 57 56 55 54 52 50 49 48 47 46 44 41 38 35 33 32 30 29 27 25 25 25 26 27 27 26 25 25 25 25 25 26 27 28 31 34 36 36 38 40 41 41 41 42 42 41 40 39 38
59 59 59 58 58 57 56 55 55 55 55 55 55 54 53 52 50 48 46 45 43 42 40 37 35 32 28 27 27 27 26 23 22 23 24 26 27 25 23 23 23 23 24 27 30 34 36 38 39 38 38 40 41 42 42 42 42 42 41 41 41 41
59 58 58 57 55 54 53 52 52 52 52 53 52 52 50 48 46 44 42 39 36 35 33 28 25 22 20 22 26 26 23 22 21 22 23 25 26 25 23 22 23 28 34 38 40 40 40 40 40 40 40 40 40 40 42 44 43 42 42 42 43 43
60 57 56 55 53 50 50 49 49 49 50 50 50 49 48 45 43 40 38 37 35 34 32 26 21 21 22 25 28 26 24 24 25 25 25 26 27 28 27 28 33 38 41 40 38 37 37 38 41 41 40 40 38 38 42 45 46 45 45 45 46 45
58 55 53 51 49 47 47 47 47 47 47 47 47 46 44 42 41 38 37 37 36 33 28 25 22 23 29 32 32 31 30 32 33 33 33 33 34 35 36 38 39 38 37 36 35 35 37 39 41 41 40 39 39 38 38 39 40 44 47 47 47 46
54 51 49 47 46 44 44 44 44 44 44 43 43 42 40 38 37 36 35 35 36 34 30 28 24 25 31 34 34 35 37 39 41 41 40 39 39 39 37 37 35 33 34 35 35 36 38 40 41 39 37 37 38 38 35 32 31 35 40 41 40 40
49 47 45 43 42 41 41 41 41 41 40 39 38 37 36 34 32 31 30 30 32 33 33 34 32 34 38 39 39 39 39 39 38 36 34 33 33 33 32 31 31 33 34 35 36 37 39 40 38 35 34 36 37 37 35 31 29 29 31 32 32 32
45 43 41 39 38 38 38 37 37 36 34 33 33 32 31 30 28 27 26 25 25 26 28 31 32 35 38 37 36 34 32 30 28 27 28 29 30 30 30 30 31 34 35 36 37 38 39 38 34 32 32 35 37 36 34 32 30 28 27 27 27 26
43 41 39 38 36 35 34 33 32 31 30 28 27 27 26 25 23 22 21 20 20 19 20 21 22 23 26 26 26 26 26 26 26 27 28 30 31 31 32 32 33 34 35 36 36 37 38 37 34 32 32 34 36 35 33 31 30 29 28 27 26 25
41 39 37 36 35 34 33 32 30 28 27 25 23 22 22 21 20 19 18 16 15 14 15 16 16 17 19 21 23 24 25 26 28 29 31 32 33 33 34 34 34 34 34 34 33 34 35 35 34 32 32 34 34 34 33 30 28 29 28 27 26 26
39 37 36 35 35 33 32 32 30 28 26 24 22 21 20 19 18 18 16 16 16 16 17 18 18 20 22 23 24 25 25 27 28 30 33 34 34 35 35 34 34 33 32 31 30 31 33 34 33 31 31 32 32 33 32 30 28 29 29 28 27 28
39 37 37 36 34 33 31 31 31 30 28 26 23 21 20 19 18 18 18 19 20 21 21 22 22 23 24 26 26 27 28 29 29 30 33 34 35 36 35 34 33 31 29 27 26 28 31 32 32 30 29 30 31 31 31 30 30 30 31 31 31 31
40 39 37 36 35 33 32 30 30 30 29 28 26 24 22 21 20 20 21 22 23 24 25 25 25 26 27 28 29 29 29 28 28 29 31 33 35 36 35 34 31 29 27 25 25 27 28 30 30 29 29 29 30 30 31 31 32 32 33 34 35 36
40 39 39 38 36 35 33 32 31 31 31 30 29 27 25 24 23 22 22 23 24 26 27 27 27 27 28 28 28 28 27 26 26 26 29 32 34 35 35 33 30 28 26 25 25 25 24 25 27 29 29 28 28 30 31 31 32 31 31 32 34 36
40 40 40 39 38 37 35 34 33 32 32 32 32 31 30 28 27 25 24 24 24 26 27 27 28 28 28 27 27 27 27 26 26 26 27 30 32 34 34 32 30 28 25 24 24 23 20 20 25 28 28 28 29 30 31 32 33 32 32 32 32 33
40 41 41 40 39 38 37 36 35 34 33 33 33 33 33 32 30 29 29 28 27 28 28 28 29 28 28 28 28 29 29 29 28 28 28 29 31 32 32 32 30 28 26 24 23 22 20 21 25 28 29 29 30 32 32 33 34 33 33 32 30 29
41 41 41 41 39 38 38 37 36 35 34 34 33 34 34 34 33 33 34 33 33 33 33 32 32 31 31 31 31 30 30 30 30 29 28 29 30 31 32 31 30 27 25 23 22 21 22 23 24 26 28 30 32 33 33 33 33 33 33 32 30 29
41 41 41 40 39 38 37 37 36 36 35 35 34 34 34 34 34 34 34 35 35 35 35 35 35 34 34 33 32 31 30 29 29 29 29 29 29 30 30 30 29 27 25 23 22 21 21 23 24 25 26 28 30 32 32 32 33 33 33 32 30 28
41 40 40 38 38 37 36 36 36 36 36 36 36 36 36 36 35 34 34 34 34 34 35 36 36 36 35 35 34 32 31 30 29 30 30 30 29 28 28 27 26 26 24 22 21 20 20 22 23 24 25 25 26 27 28 29 30 31 30 29 27 27
39 38 37 36 36 35 35 34 34 35 35 36 36 37 37 36 36 35 35 35 35 35 35 36 36 36 35 35 34 34 33 31 31 31 32 32 31 29 27 26 25 24 23 21 21 20 21 21 23 24 25 25 24 25 25 26 27 28 28 27 27 27
37 36 34 34 34 33 33 32 32 32 33 34 34 34 34 34 34 34 34 35 35 35 35 35 35 35 35 35 35 35 34 34 33 33 33 34 34 32 29 27 25 24 24 23 23 23 22 23 23 24 25 25 25 25 25 25 26 26 27 27 27 26
35 34 33 32 32 32 32 31 31 31 32 32 32 32 32 31 31 32 32 33 33 33 32 31 31 31 32 33 34 35 35 35 35 35 35 36 36 36 34 31 29 29 28 27 26 25 25 24 24 24 24 25 25 25 25 25 25 25 25 25 25 25
34 33 33 33 33 32 32 32 32 33 33 32 32 32 32 32 31 31 32 33 33 32 31 30 29 29 29 30 31 32 33 34 36 37 37 38 38 39 39 37 36 35 34 33 31 29 28 27 26 25 25 24 25 26 26 26 26 25 26 26 25 25
32 32 33 34 35 35 34 34 35 35 35 34 33 34 34 34 33 32 33 34 34 34 32 31 30 29 29 30 30 31 31 32 34 36 37 39 39 40 41 41 41 40 39 38 36 34 31 30 29 28 27 26 26 26 26 27 27 27 27 27 28 27
28 29 33 36 36 36 35 36 37 36 35 35 34 34 36 36 35 34 34 34 35 35 34 33 32 31 30 30 31 31 31 31 31 32 34 37 38 40 41 41 41 41 40 39 38 36 34 33 32 31 31 30 30 29 28 29 29 29 29 29 29 29
25 30 37 39 37 35 35 38 39 37 36 37 37 36 36 37 37 36 35 35 36 37 37 35 34 33 32 32 32 33 34 33 32 31 32 33 35 37 38 39 40 40 39 39 38 37 36 35 34 33 33 33 33 33 32 31 31 31 31 31 30 30
26 36 41 40 36 34 37 39 40 39 38 40 40 38 38 39 39 39 38 38 38 39 40 38 37 36 36 35 34 34 34 35 35 35 34 34 34 35 36 37 38 39 40 39 39 38 38 37 36 35 34 34 35 35 34 32 31 31 31 32 32 32

ECMWFFLT2_250_spd_024.txt.gz
Wind_Speed
86 83 82 81 79 75 66 63 68 72 75 75 71 69 69 69 68 70 72 70 66 60 58 61 65 66 66 64 60 58 55 51 48 47 43 39 38 38 39 39 38 37 36 36 35 35 34 32 31 33 33 31 29 28 28 27 26 27 28 28 27 26
86 83 81 74 65 63 62 62 66 70 72 69 64 63 66 70 71 72 72 70 67 60 60 66 66 64 64 63 61 57 55 52 49 47 45 41 40 38 38 39 38 36 34 33 34 33 32 31 31 32 32 30 29 28 27 25 25 26 28 28 27 27
83 80 73 62 59 63 64 65 69 72 69 61 59 64 70 73 72 71 70 69 69 63 62 67 63 60 62 60 58 58 54 52 48 46 44 41 39 37 36 36 34 33 32 32 33 33 32 32 32 32 31 30 29 27 25 24 24 26 27 27 27 27
77 75 71 66 65 65 65 69 71 68 61 56 62 69 69 68 67 69 70 67 66 64 64 66 62 61 62 56 54 56 53 49 46 44 42 39 38 36 35 34 33 32 33 33 32 32 32 32 31 31 31 30 28 26 24 24 25 26 27 27 28 28
73 72 72 70 67 65 66 66 61 57 54 51 55 61 61 63 65 66 67 63 61 62 62 61 61 62 61 57 54 54 51 46 45 43 40 38 36 34 33 34 33 33 35 35 34 32 32 32 31 31 30 28 27 25 24 25 26 27 27 28 29 30
68 68 68 65 62 61 61 59 56 55 54 48 46 52 58 60 60 60 59 57 59 61 61 60 62 61 60 58 55 53 49 46 44 42 40 37 35 33 32 33 33 33 33 34 35 34 32 32 31 30 29 26 26 26 26 26 27 27 28 29 30 31
62 63 62 59 56 56 56 57 57 55 55 53 51 54 59 57 54 57 56 57 63 65 64 62 62 62 60 58 55 52 48 45 43 40 38 36 33 32 31 31 31 30 30 31 33 34 33 34 32 29 27 26 27 28 28 28 28 28 29 30 30 31
52 53 53 50 49 49 51 54 54 51 51 53 55 57 58 56 54 58 61 64 68 66 63 59 54 56 57 55 52 49 45 43 40 37 34 31 29 28 28 27 26 26 27 29 32 33 34 33 30 28 27 27 28 29 29 29 29 28 29 29 29 30
44 42 41 42 44 42 40 43 46 47 48 50 54 52 49 53 58 64 68 68 66 63 59 51 44 45 51 53 51 47 43 38 33 29 25 23 23 23 22 22 22 24 26 29 31 31 31 30 28 28 28 29 30 31 32 31 29 28 29 30 30 31
41 39 39 40 41 37 34 37 42 43 40 40 46 47 49 59 66 68 67 64 61 56 49 42 38 40 44 45 41 37 33 25 20 18 18 18 19 20 20 20 22 25 28 29 29 29 29 29 29 30 30 31 32 32 32 31 30 31 33 33 33 33
41 40 41 38 34 31 34 37 37 36 33 37 48 54 59 65 66 64 60 56 51 45 41 38 36 35 33 27 22 23 22 15 11 10 13 16 18 19 21 23 23 25 28 28 29 30 30 30 30 30 30 30 30 31 33 33 34 36 36 36 36 36
37 37 38 37 34 31 32 33 33 39 44 51 58 60 60 60 58 55 50 47 42 39 40 40 38 36 28 20 18 21 18 12 10 10 13 17 20 22 24 26 27 26 28 29 30 30 30 29 28 28 29 30 33 36 38 38 38 38 37 37 36 36
34 35 38 38 39 37 36 38 44 53 60 62 61 59 57 55 53 50 47 44 38 35 37 37 37 35 30 26 26 26 19 13 13 12 13 16 20 23 25 26 26 28 30 32 33 32 31 29 28 30 34 37 38 38 38 38 38 38 38 36 34 34
36 38 42 44 46 47 47 52 59 64 64 62 59 56 54 53 52 49 48 44 39 37 38 38 37 34 32 31 31 28 21 17 16 15 14 16 18 21 22 23 24 26 28 31 33 32 30 30 32 35 37 36 35 35 36 37 39 39 39 36 33 33
46 43 48 53 55 58 61 66 67 65 61 56 54 52 51 50 49 48 45 42 40 40 40 40 37 33 32 32 31 29 24 21 21 23 23 21 21 24 26 28 28 28 29 30 32 33 33 35 36 36 34 33 33 35 36 38 39 39 38 35 32 33
61 57 60 65 67 68 70 68 64 59 54 51 49 47 46 44 44 43 41 38 38 39 40 41 38 35 34 33 33 33 30 26 27 30 31 28 26 30 34 35 35 36 36 36 35 37 38 38 36 33 32 33 34 35 35 36 37 36 34 31 29 29
67 67 69 71 70 68 64 60 56 52 49 47 45 43 41 39 38 38 36 34 33 34 37 39 39 40 40 38 35 33 31 29 30 32 34 33 32 34 37 38 41 42 42 40 37 35 35 34 33 33 34 35 35 35 34 34 33 31 27 24 24 25
64 66 66 65 62 59 55 52 50 47 45 43 41 39 36 34 33 32 31 29 28 28 31 34 36 39 41 39 36 34 32 31 33 35 36 36 36 38 38 38 40 39 38 36 32 30 31 33 34 35 35 35 35 36 35 33 31 29 25 25 26 27
58 62 60 57 54 51 49 46 44 42 40 38 36 34 32 30 28 26 25 24 23 23 24 27 30 33 37 38 38 38 36 35 35 35 36 37 37 37 35 35 36 35 34 33 30 29 30 32 33 33 34 34 35 34 32 29 28 28 28 29 30 30
54 60 59 55 52 49 46 44 41 39 36 34 32 30 29 27 24 22 21 20 20 20 20 22 25 29 32 35 38 40 38 37 36 32 31 32 34 32 29 32 34 34 33 32 30 29 30 31 31 30 32 33 34 32 29 27 26 27 28 28 30 30
54 58 57 53 51 47 44 42 39 37 35 32 30 28 28 25 23 21 19 17 17 17 18 19 21 24 27 29 32 34 34 33 33 30 27 29 31 29 28 31 33 32 33 32 30 30 31 31 30 30 31 32 32 30 29 30 30 30 30 31 32 31
52 53 52 51 48 45 43 40 38 35 33 32 30 28 27 25 23 20 18 16 15 16 17 18 19 21 23 24 26 27 28 27 28 29 29 29 30 30 31 31 30 30 32 32 31 30 30 29 29 30 30 30 29 28 29 31 33 35 35 35 35 34
51 50 49 48 45 43 41 39 37 34 32 31 31 30 28 27 24 22 20 17 15 15 17 19 21 22 23 24 25 26 27 28 28 29 30 31 32 32 32 30 28 29 31 32 31 30 28 27 28 30 29 27 26 27 29 31 33 35 36 36 35 35
50 49 47 46 43 42 40 37 35 33 32 31 31 30 29 28 26 25 22 20 17 17 18 22 24 25 26 27 28 29 30 31 31 31 32 32 32 31 29 28 27 28 30 31 31 30 29 28 29 29 27 25 25 26 27 30 32 34 34 35 35 35
46 46 46 44 43 41 38 36 35 33 33 32 32 31 29 28 28 27 26 24 22 20 20 23 26 28 29 30 31 31 32 31 31 30 30 29 29 28 27 27 27 28 30 29 29 30 29 28 29 28 25 23 24 25 27 30 32 33 34 35 35 36
44 44 44 43 41 39 37 36 35 34 34 34 34 33 31 29 28 29 29 29 27 25 24 24 26 27 29 29 30 30 29 28 28 28 28 28 28 28 28 28 27 28 28 28 28 29 28 28 28 27 25 24 23 24 26 29 31 33 35 35 36 37
42 42 42 41 39 37 36 36 35 35 35 35 35 35 33 31 30 30 30 31 30 29 28 28 29 29 29 29 29 29 29 29 29 30 30 30 30 29 27 26 26 26 26 26 28 29 29 29 28 26 25 25 25 26 29 30 31 33 35 36 37 38
41 41 41 40 38 37 36 36 35 35 36 36 36 35 34 32 31 31 31 31 31 30 29 30 31 32 33 33 33 33 33 33 33 33 33 32 31 29 26 24 23 24 25 26 28 30 31 29 27 26 25 25 25 27 30 31 32 34 36 37 38 39
40 40 40 39 38 37 37 36 35 35 35 35 35 35 33 31 31 31 31 32 32 31 30 30 31 32 33 34 34 34 34 34 34 34 33 32 31 29 26 24 23 24 25 26 28 29 29 28 27 25 23 23 24 25 27 29 31 33 36 38 38 39
40 40 40 39 39 38 37 37 36 35 34 35 33 32 31 31 30 31 31 31 31 31 31 31 31 32 32 32 32 32 33 32 32 32 32 31 30 28 27 26 26 26 26 26 27 27 27 27 25 23 22 21 22 23 24 26 28 29 31 34 35 36
38 39 39 39 39 38 37 36 36 35 34 34 32 31 30 29 29 29 29 30 29 29 29 29 29 30 30 30 30 30 31 31 31 31 32 31 30 29 29 29 29 29 29 28 27 26 26 25 25 24 23 22 23 23 24 25 26 27 28 29 30 31
34 37 39 40 40 38 37 36 35 34 33 32 31 30 30 29 28 28 28 28 28 28 27 26 26 27 27 27 27 27 28 28 29 29 30 30 30 31 31 32 32 33 33 32 30 29 28 27 27 27 26 25 25 25 25 25 26 26 27 27 27 28
32 37 39 40 40 40 37 36 35 34 33 32 31 31 30 29 29 28 28 29 29 28 27 27 27 26 26 26 26 26 26 26 26 26 26 27 28 30 32 33 34 35 36 36 35 33 31 31 31 31 30 29 28 27 27 27 27 27 27 27 27 28
26 33 38 39 37 36 34 33 34 34 33 32 32 32 31 30 30 30 29 29 29 29 29 29 29 28 28 27 27 27 27 26 26 25 25 25 26 28 30 32 34 36 37 39 39 39 38 37 37 36 35 34 33 32 31 30 30 29 28 28 27 28
22 26 30 32 33 34 34 34 34 35 34 33 32 32 33 32 32 31 29 29 29 30 31 31 31 31 30 30 30 29 29 28 27 26 26 26 26 27 29 30 32 33 35 37 39 41 41 42 42 41 39 38 37 36 35 34 33 32 31 30 29 29
27 30 30 31 36 38 37 36 35 36 36 35 34 34 35 35 35 33 31 30 30 31 32 32 33 33 33 32 32 31 31 30 29 28 28 28 29 31 31 32 32 33 33 34 36 38 40 41 42 42 41 40 39 38 37 36 35 34 34 33 32 31
28 34 38 39 41 40 38 37 36 36 37 36 37 37 37 38 38 38 35 33 33 33 34 35 35 35 35 35 35 35 34 34 33 32 31 31 32 32 33 34 34 34 34 34 34 36 38 40 41 42 42 42 41 39 39 38 37 36 35 35 34 34

ECMWFFLT2_250_spd_030.txt.gz
Wind_Speed
73 75 75 72 70 70 68 67 67 67 67 67 67 68 66 65 63 61 62 67 70 68 63 57 53 50 45 43 43 43 41 41 39 35 34 34 37 42 44 44 41 43 44 41 37 34 31 28 27 25 23 22 23 25 26 26 24 22 24 24 25 28
74 73 71 65 62 64 62 62 61 60 62 64 66 65 61 60 60 62 65 67 65 60 54 47 44 42 39 39 38 35 36 37 35 33 34 36 40 42 42 42 42 46 45 39 35 32 28 25 25 24 23 22 22 24 26 26 24 23 23 23 25 27
75 72 66 59 57 58 58 60 60 61 63 63 60 58 59 62 62 62 61 62 59 55 51 43 39 36 32 34 34 33 36 36 36 37 39 39 39 39 42 45 45 46 41 35 32 28 23 22 23 23 22 22 22 23 25 25 25 24 22 22 24 26
72 68 61 58 60 62 61 61 61 61 58 56 57 59 63 63 62 59 56 58 57 55 54 50 47 40 33 35 38 37 37 36 38 39 39 38 36 40 47 46 44 41 35 29 25 22 20 20 22 22 21 21 21 22 24 25 26 25 22 21 24 26
70 66 60 60 61 60 58 57 56 56 54 56 60 61 60 58 58 56 54 53 54 55 55 53 49 44 39 38 39 37 37 37 37 37 38 38 39 47 50 41 36 31 26 22 20 18 19 20 21 21 21 21 21 22 23 26 27 26 23 22 23 25
69 65 63 60 57 54 52 52 51 51 53 55 57 58 57 57 57 55 53 51 51 53 55 52 49 48 45 42 38 36 36 37 38 39 41 42 45 52 49 36 29 25 21 19 18 17 18 18 19 20 21 21 21 21 23 26 28 27 24 22 22 24
68 66 65 62 57 52 50 48 48 48 50 51 51 54 57 56 53 51 50 48 47 50 52 51 50 51 50 46 41 37 38 39 41 43 45 49 53 55 46 34 27 23 21 18 18 18 17 17 17 17 18 19 19 20 21 24 27 27 24 23 23 25
69 66 61 57 54 52 53 54 53 49 48 48 49 52 54 50 46 45 44 43 44 46 48 48 50 52 51 47 44 42 41 42 44 47 51 55 57 55 44 33 28 25 23 20 18 18 18 18 18 18 17 17 18 19 19 21 24 24 23 24 25 26
65 62 57 54 56 59 61 60 58 52 46 45 48 48 44 40 39 42 43 40 41 42 45 48 50 51 49 45 47 47 45 45 47 51 55 56 57 55 43 34 31 28 27 25 21 20 21 21 20 19 17 16 17 17 19 21 22 23 24 25 25 26
58 60 60 61 64 65 64 58 51 48 45 45 44 41 40 39 41 44 44 43 43 44 44 45 44 43 41 42 47 51 50 49 51 53 53 55 57 53 41 36 34 29 29 28 25 24 24 24 22 20 18 16 15 15 19 22 22 23 25 26 25 26
51 55 57 60 62 61 58 50 43 44 47 49 47 46 47 48 48 46 46 46 46 45 42 41 40 37 36 37 42 47 49 51 52 50 49 53 56 50 39 38 36 30 28 27 27 25 25 25 23 22 19 15 13 15 18 22 24 25 24 26 27 27
51 53 55 57 57 54 50 45 43 45 48 50 52 52 51 50 49 49 49 49 44 42 43 42 42 40 37 36 39 44 46 47 46 46 49 55 55 49 42 39 36 31 27 26 26 25 24 24 23 21 19 17 14 15 18 20 24 26 25 27 30 31
53 55 56 56 54 50 48 44 43 48 50 51 52 52 51 51 51 52 51 49 46 44 44 44 42 40 38 38 42 43 43 43 46 52 59 60 58 54 45 39 37 31 26 25 25 25 24 22 20 16 15 18 18 18 19 20 25 28 29 31 32 32
57 58 57 56 55 53 52 46 43 49 52 51 51 51 51 52 55 54 51 49 49 48 46 45 44 41 39 41 45 45 47 52 58 66 68 63 58 51 42 37 36 31 26 24 23 24 23 21 19 14 12 16 20 22 19 20 26 29 30 31 32 31
62 61 59 58 58 57 54 48 43 47 50 50 53 54 55 56 58 58 54 53 53 52 50 47 46 46 45 46 48 51 55 63 69 72 67 59 52 44 38 36 33 28 24 23 23 23 20 17 17 14 11 15 20 23 22 22 24 27 29 31 32 32
63 62 61 61 60 58 53 48 46 49 52 53 54 55 56 57 56 57 57 56 54 54 53 50 49 50 50 52 54 58 63 67 68 65 59 52 46 40 37 36 32 27 22 21 21 19 17 15 16 15 13 17 22 23 25 26 27 28 29 31 31 31
63 63 63 61 59 57 53 48 47 50 53 53 53 53 53 53 52 51 52 53 53 53 53 52 52 52 54 57 59 61 63 62 58 54 52 47 42 39 37 38 36 31 25 21 20 17 17 14 15 19 17 19 20 19 21 26 29 30 30 30 31 32
61 62 61 59 57 56 53 49 48 49 51 51 51 50 49 49 48 46 46 48 50 51 51 53 55 57 59 60 59 57 55 52 50 49 47 44 41 39 38 39 39 36 31 27 23 19 17 13 13 18 19 20 20 19 22 25 27 29 30 31 32 34
59 59 57 56 54 53 51 49 49 49 50 50 48 46 46 45 44 44 43 45 48 50 54 57 59 59 58 57 54 52 49 47 46 45 43 41 39 38 37 38 39 37 35 31 27 23 21 17 17 19 22 23 22 21 23 25 26 27 27 29 31 33
55 55 53 51 50 49 48 47 47 48 49 49 47 44 44 44 43 44 46 48 52 55 58 59 58 57 55 53 51 48 46 45 43 42 41 39 37 36 35 35 35 34 33 31 28 26 25 23 21 22 24 25 23 24 26 27 27 27 27 28 31 33
50 49 47 46 46 46 46 46 46 47 47 46 46 44 44 45 47 49 51 53 55 56 57 56 55 53 52 50 48 46 44 42 41 40 39 38 38 37 34 35 34 31 29 30 28 27 28 29 26 25 26 27 26 27 27 27 26 26 28 30 32 34
44 44 42 42 43 43 42 43 44 46 47 46 47 47 47 49 51 53 54 55 55 55 55 54 52 50 48 46 44 43 41 40 40 39 38 38 41 39 35 36 37 34 31 31 31 30 30 32 32 31 31 32 33 32 29 29 29 29 29 29 29 32
39 40 40 41 41 40 39 40 41 44 47 48 51 52 52 53 53 54 56 56 56 56 55 52 49 47 45 43 42 40 39 38 39 39 39 40 43 43 38 37 39 39 35 32 32 33 33 35 36 37 37 38 38 37 34 32 33 32 31 30 31 33
38 37 37 38 38 37 36 34 35 39 43 46 51 54 54 54 55 56 57 57 58 57 54 49 46 44 43 42 40 38 38 38 38 39 40 42 45 46 44 42 43 43 41 37 34 34 35 37 38 39 39 39 39 37 35 34 34 34 32 31 32 34
33 34 33 33 32 33 32 28 29 35 38 41 45 49 51 52 53 55 55 56 56 53 49 46 45 44 42 41 39 38 37 37 38 38 39 42 45 47 47 44 44 45 45 44 40 36 36 38 38 38 37 38 39 39 38 37 36 36 35 33 32 35
33 32 30 30 30 29 28 28 31 33 35 38 41 42 45 46 49 52 53 53 52 50 48 46 45 43 42 41 39 38 37 36 37 38 39 41 44 48 49 47 45 46 48 49 46 41 39 40 40 39 38 37 38 39 39 38 37 37 38 37 36 38
38 33 30 28 27 26 26 27 30 31 33 36 39 40 40 43 48 51 51 51 50 50 48 46 44 42 42 40 38 37 37 36 35 37 39 40 41 46 51 53 51 49 49 50 50 48 45 43 42 41 40 40 39 40 40 40 39 38 38 39 37 37
40 35 31 28 27 27 27 28 31 34 35 37 39 39 42 46 49 49 47 47 47 46 44 42 41 39 38 38 37 36 36 36 35 35 38 40 41 42 46 52 55 55 54 53 53 53 51 49 47 43 41 41 43 44 44 44 42 41 41 40 37 36
38 36 33 31 30 28 29 31 33 36 37 37 39 41 45 48 47 44 42 41 41 40 39 38 37 36 35 35 36 35 35 35 35 35 37 39 41 42 42 45 50 53 55 56 56 56 54 53 52 51 48 47 47 47 46 46 45 44 45 43 39 38
39 37 35 34 30 28 32 33 31 32 34 37 41 44 46 46 43 40 38 37 36 36 36 35 35 34 33 34 34 35 34 33 34 34 35 37 40 42 43 43 45 47 50 52 54 54 54 54 53 54 54 53 51 50 48 45 44 44 44 44 43 41
44 40 38 37 32 30 34 35 31 29 31 32 35 37 41 42 40 36 33 31 32 33 33 33 32 32 31 31 32 32 32 32 32 33 34 35 37 40 43 44 45 46 47 49 50 51 53 54 54 55 56 56 55 53 50 47 45 44 44 45 46 44
49 45 43 42 38 35 37 37 33 29 28 27 26 28 31 32 33 30 27 26 27 29 30 29 29 28 28 28 28 29 29 29 29 29 30 32 34 36 39 41 44 45 47 48 50 51 52 54 55 56 56 57 57 54 51 49 46 44 43 44 45 46
52 49 46 45 43 41 41 40 37 33 30 27 27 28 27 27 28 27 26 26 26 26 26 26 26 25 25 25 25 25 26 26 26 26 26 27 28 30 32 35 37 40 43 45 47 49 50 52 53 54 54 54 54 53 51 49 46 43 42 42 44 46
55 54 52 49 48 46 45 44 43 41 37 34 35 33 31 30 31 30 30 29 27 26 24 24 24 23 23 23 23 23 24 25 24 24 24 25 25 25 27 28 29 32 34 36 38 41 43 45 46 48 49 50 50 50 49 48 46 45 44 43 43 45
53 57 57 54 52 52 51 50 48 46 45 43 42 39 35 33 33 33 32 31 30 29 27 25 24 23 23 23 23 23 24 24 24 25 24 24 24 24 25 25 26 27 28 30 31 33 34 36 38 40 43 45 46 47 48 48 48 48 47 45 45 45
51 54 55 54 54 54 54 54 52 51 50 48 48 46 43 40 37 35 34 34 36 36 33 29 28 27 27 26 26 25 25 26 26 27 27 26 26 25 26 26 26 27 28 29 30 31 32 33 34 36 38 40 42 44 46 47 48 50 50 50 49 48
52 53 53 52 54 55 56 57 56 55 54 52 52 52 51 50 46 43 41 41 40 39 37 35 34 34 32 31 29 28 27 28 28 29 29 29 28 28 28 27 27 27 28 28 29 30 32 33 34 35 36 37 39 40 41 43 46 48 50 51 52 51

ECMWFFLT2_250_spd_033.txt.gz
Wind_Speed
77 77 76 76 74 73 71 70 68 68 69 68 64 60 58 57 58 61 63 64 64 63 62 59 55 54 57 57 54 53 53 52 50 48 43 37 33 34 32 29 30 30 33 40 41 37 33 30 29 29 29 27 26 26 27 28 28 27 26 26 26 24
72 72 72 72 72 71 70 68 67 67 68 66 63 61 61 60 62 64 63 62 61 59 56 53 53 55 55 53 53 53 51 50 48 44 37 31 33 35 31 28 30 31 36 42 40 36 32 28 30 28 25 23 23 24 25 26 25 24 24 26 26 26
71 71 70 70 71 71 68 67 67 68 68 66 65 64 63 63 62 62 61 59 56 53 52 53 54 53 52 54 55 52 49 48 45 40 33 30 34 35 31 31 32 33 39 43 39 35 30 28 29 26 21 19 20 21 23 23 22 21 22 25 26 26
74 72 69 68 67 66 65 66 64 62 62 62 62 62 63 60 58 58 56 54 52 52 52 52 51 52 56 57 52 47 45 45 44 40 33 30 34 36 35 35 36 37 42 44 39 33 30 29 27 21 17 15 16 19 21 21 19 19 21 24 26 24
72 70 67 65 63 62 62 62 58 54 54 57 58 58 58 55 54 53 52 51 52 54 53 54 56 58 57 51 45 43 43 43 42 41 36 33 36 39 38 38 39 40 45 46 38 33 30 29 25 19 16 15 15 17 19 18 16 18 20 23 25 24
67 64 62 61 61 61 60 59 56 53 53 54 53 51 50 50 49 48 50 52 54 55 56 57 57 54 48 42 42 41 41 41 41 41 41 40 40 41 40 40 41 43 46 46 38 33 31 29 25 20 17 18 18 19 20 17 15 17 20 23 25 24
58 57 56 57 58 56 54 53 52 50 51 51 50 50 49 50 49 48 48 48 50 51 52 51 47 44 42 40 41 40 39 39 40 42 44 44 43 43 41 42 44 45 46 44 38 35 33 31 28 23 21 22 22 23 24 20 16 17 19 21 23 25
56 57 57 58 58 56 54 52 50 47 47 47 47 48 49 51 52 52 49 45 46 46 44 42 40 40 41 41 41 40 39 40 40 42 42 42 41 43 44 45 47 47 46 44 40 39 38 36 31 26 24 25 25 27 27 21 16 16 18 19 22 24
59 61 60 59 59 58 56 54 51 48 46 45 46 46 48 53 54 54 50 45 44 44 41 39 40 41 41 42 43 43 43 43 43 44 43 40 40 43 46 48 49 48 47 45 45 45 43 39 33 28 26 26 25 25 25 21 16 16 17 18 20 22
61 60 58 55 55 54 52 50 46 44 44 45 46 47 51 55 55 53 51 47 44 44 42 42 44 47 47 46 47 47 46 45 45 46 45 43 42 43 45 47 48 47 46 46 49 48 43 37 33 29 27 25 24 25 26 24 20 18 17 17 18 20
60 58 54 52 53 53 52 50 45 41 41 43 46 49 52 52 51 51 51 50 49 48 49 50 51 52 51 51 49 47 45 44 43 44 43 41 39 40 42 43 44 45 47 50 51 45 38 34 30 28 26 26 27 28 28 27 22 19 19 18 17 18
56 54 52 51 52 51 51 51 48 44 43 45 48 51 53 51 48 49 51 52 53 53 53 54 54 52 51 51 48 45 42 41 40 41 40 38 37 39 41 43 45 48 51 52 47 37 32 31 27 26 26 25 27 29 29 26 21 19 21 20 19 19
53 51 51 52 53 51 50 50 52 50 48 50 54 56 57 55 51 50 52 53 53 53 53 53 53 52 52 51 48 44 42 41 40 40 40 39 41 43 44 47 50 52 53 50 41 31 29 27 24 24 25 25 25 27 27 24 20 20 22 22 22 23
55 54 54 54 55 54 54 54 56 57 57 57 59 60 58 56 54 53 53 54 53 53 54 55 55 54 53 51 49 47 46 45 43 43 43 43 44 47 49 52 53 53 51 44 35 29 27 25 23 23 24 25 24 24 24 22 20 22 22 21 24 26
56 54 52 53 55 55 56 57 59 61 62 62 61 60 58 56 53 51 52 53 53 54 55 56 55 53 51 50 49 49 49 49 47 46 46 46 47 49 52 53 52 50 46 39 32 30 28 25 23 21 23 24 22 21 20 19 19 21 23 25 27 29
53 52 52 54 56 58 59 60 62 63 64 63 63 61 59 56 52 50 51 52 52 53 54 54 52 50 48 47 47 47 47 47 48 48 48 49 49 51 52 51 48 45 42 37 31 30 27 23 21 20 23 23 22 20 16 16 19 21 23 24 25 26
53 53 53 55 57 59 61 62 63 63 62 62 61 60 57 54 52 50 50 52 52 52 53 52 50 48 46 45 44 44 45 46 48 49 50 50 51 52 51 46 43 41 40 36 30 29 26 21 21 22 23 22 21 20 15 16 21 22 22 21 22 24
55 53 53 55 57 59 60 60 61 61 60 58 56 55 53 52 50 49 49 50 50 50 50 49 48 46 45 43 44 45 46 47 48 49 50 52 53 54 50 43 40 39 38 34 30 31 28 23 23 24 24 23 22 20 18 20 21 22 22 22 23 24
52 50 50 53 56 57 57 56 57 56 54 53 52 51 50 49 48 47 47 48 48 47 46 46 45 44 44 44 46 47 48 49 50 51 52 54 55 53 49 43 39 38 36 34 32 32 31 26 24 24 23 22 21 19 18 19 17 18 23 26 26 25
46 44 43 47 49 50 50 49 49 49 48 47 47 47 46 46 45 45 46 46 46 45 44 44 44 45 45 47 48 49 50 51 52 54 55 56 56 51 47 43 38 36 35 34 33 33 32 30 27 25 22 20 20 18 17 18 18 20 23 23 25 28
42 41 40 42 43 43 42 42 42 42 42 42 42 43 43 43 44 44 44 44 44 43 44 46 47 47 48 50 51 52 52 54 55 57 58 57 54 49 46 42 37 35 33 34 33 31 31 30 29 28 25 23 21 22 22 24 26 28 27 24 27 32
38 38 39 40 40 39 39 39 39 38 39 39 40 40 41 42 43 43 43 43 42 43 45 48 49 49 51 51 52 53 54 56 57 59 58 56 52 46 42 39 36 33 32 34 32 30 29 29 28 28 29 28 27 28 29 29 31 33 35 35 35 35
39 37 37 40 39 38 37 37 37 37 38 39 39 39 39 40 41 41 41 41 42 43 46 48 49 50 52 53 54 55 56 58 57 57 55 52 47 42 38 36 34 32 32 35 33 30 30 31 30 29 28 31 32 33 33 33 34 36 37 37 36 35
39 36 36 40 40 38 36 36 35 35 36 38 38 37 37 39 40 41 41 42 44 45 46 48 50 52 53 54 55 56 56 56 54 52 49 45 41 37 34 33 32 32 33 37 36 33 33 33 33 33 31 31 33 33 34 34 35 37 38 38 37 35
41 39 38 40 39 36 35 35 34 33 35 37 37 36 36 36 38 39 40 43 45 47 48 50 52 53 53 53 54 55 54 53 50 46 43 40 37 34 32 32 32 32 34 39 40 37 36 35 35 37 36 34 33 34 35 36 37 39 40 39 37 34
42 42 41 41 41 39 38 37 35 33 33 34 36 36 35 35 36 35 36 39 41 44 46 48 50 50 50 50 51 52 51 49 46 41 39 36 34 33 32 31 32 32 34 40 43 40 38 39 38 37 36 34 34 35 37 38 40 41 41 40 37 34
44 45 44 43 43 42 40 38 37 35 33 33 34 34 34 35 36 36 34 35 36 37 40 42 44 45 46 48 49 49 49 47 43 38 35 34 33 32 31 32 33 33 33 38 44 44 41 41 42 40 38 35 34 36 37 38 40 40 41 41 39 37
50 48 46 46 45 44 42 40 38 37 36 34 33 33 34 34 36 38 37 36 35 35 37 39 42 44 46 47 47 47 47 46 41 36 33 32 32 31 31 31 33 34 33 35 41 46 45 43 44 45 45 43 40 38 38 39 39 39 40 41 42 41
51 51 49 47 45 45 44 42 40 40 39 36 34 34 36 37 37 37 37 37 36 35 37 39 42 44 46 45 44 45 46 43 38 35 33 32 31 31 30 31 32 34 34 34 36 41 45 46 45 47 48 48 46 44 43 44 43 42 42 43 44 45
50 50 47 45 43 43 43 43 43 42 40 37 37 37 38 38 38 38 38 37 37 37 37 39 42 43 42 41 42 44 42 38 35 33 31 30 29 29 29 30 31 32 34 35 35 37 40 43 46 47 49 50 50 50 50 50 49 48 48 47 47 48
51 51 49 47 45 44 43 44 45 45 43 41 41 39 38 37 38 40 38 37 36 36 36 38 39 38 37 38 40 40 36 33 31 31 29 27 26 26 26 28 29 31 32 34 36 37 38 40 42 45 47 49 51 52 54 54 54 53 52 51 50 50
50 53 53 49 46 45 44 45 47 47 46 45 44 42 39 37 38 40 38 35 34 34 35 36 37 37 37 38 37 34 31 30 29 27 26 25 24 24 24 25 26 28 30 32 34 36 37 39 41 43 45 47 48 50 51 52 53 53 53 53 53 52
49 51 52 49 46 44 44 45 47 49 48 47 45 42 39 38 40 43 42 39 36 35 35 37 38 40 40 38 33 30 28 27 25 24 24 23 23 23 23 23 24 24 26 28 30 32 34 36 39 41 42 44 46 47 48 49 50 51 52 53 53 52
50 50 48 46 43 43 44 45 47 49 49 48 46 43 40 39 40 43 44 43 42 40 40 41 41 41 40 36 32 29 27 25 24 23 23 23 23 23 23 23 23 23 24 24 25 27 29 31 33 35 38 40 41 43 44 46 47 48 49 50 50 50
50 48 46 43 42 41 43 45 46 47 48 48 47 46 43 42 43 44 44 45 45 45 45 45 44 43 42 41 39 36 33 30 27 24 23 24 24 24 24 24 24 24 25 25 25 26 27 29 30 32 33 35 36 38 39 40 41 42 43 45 46 47
50 49 47 46 45 44 45 46 46 47 48 47 46 45 45 45 45 47 47 48 48 48 48 48 47 48 49 50 49 46 43 40 35 29 26 24 24 24 26 26 27 26 26 26 27 28 29 30 31 32 33 34 35 36 37 38 38 39 40 41 41 42
53 53 52 50 49 48 48 47 47 47 48 48 45 44 44 45 45 47 49 51 51 51 51 52 52 54 55 55 55 53 50 48 45 39 32 28 26 25 25 27 29 30 30 30 29 29 30 31 32 33 34 35 35 35 36 36 37 37 38 39 40 41

ECMWFFLT2_250_spd_036.txt.gz
Wind_Speed
80 78 77 76 75 74 73 73 72 72 71 70 69 68 66 65 64 63 61 61 62 61 59 57 56 55 53 51 51 50 47 44 44 45 46 50 50 47 47 46 44 42 40 39 35 32 32 34 36 38 35 33 34 33 30 28 27 29 29 30 29 27
77 75 74 72 71 70 69 68 68 69 69 67 65 63 61 60 60 59 59 59 60 59 58 57 55 52 50 49 49 47 45 45 47 49 50 51 47 44 44 44 42 41 40 39 36 34 34 36 37 38 35 33 34 31 29 28 27 28 29 30 30 27
74 72 70 68 66 65 65 65 66 66 64 62 60 57 55 55 55 56 57 58 58 58 58 56 53 49 48 48 48 47 47 51 52 50 47 46 43 42 41 41 41 40 40 39 38 38 37 36 37 37 35 33 32 31 32 31 29 29 31 32 30 26
71 70 68 66 64 63 63 63 62 61 58 56 54 53 53 54 54 54 54 55 54 52 52 52 51 50 49 49 49 50 53 53 49 43 40 41 41 41 40 39 39 40 40 40 41 41 38 37 38 37 35 34 33 34 35 33 30 29 31 31 29 24
67 65 64 62 61 61 61 60 60 58 57 55 53 53 55 57 57 55 53 54 52 47 46 48 50 51 51 50 49 50 50 45 40 38 39 41 40 40 40 39 40 40 41 42 42 41 39 39 39 38 36 36 37 36 34 33 31 29 29 28 26 23
58 58 59 59 59 59 59 58 57 57 56 56 55 56 57 57 57 55 54 55 53 47 45 48 50 50 50 49 49 47 44 39 37 37 38 40 41 41 42 42 42 41 42 42 42 41 40 40 40 39 39 40 40 38 37 36 33 31 30 27 24 22
53 55 58 58 58 57 56 55 55 56 56 57 57 56 56 54 53 53 53 54 52 47 46 48 49 49 50 50 49 47 43 41 39 39 40 43 44 44 44 44 43 42 42 42 42 42 41 42 41 41 42 43 43 43 41 38 33 31 29 26 23 21
55 57 57 56 55 55 54 55 55 56 57 57 57 56 54 53 52 52 51 51 50 47 46 48 48 49 51 51 49 48 45 44 43 44 47 47 46 45 44 43 43 42 41 40 40 40 41 42 41 42 43 45 46 43 38 33 30 28 26 25 23 21
56 56 56 54 54 54 55 56 57 58 58 58 57 55 53 51 51 51 49 47 46 46 46 47 48 49 50 50 49 48 46 46 47 49 49 48 46 45 43 42 41 40 38 36 36 38 39 39 40 42 44 44 43 39 33 31 29 27 26 24 23 22
57 58 58 57 55 55 57 58 59 59 59 58 55 53 51 50 49 49 48 44 44 46 46 48 50 52 51 50 49 48 48 48 49 50 49 47 45 43 42 40 39 38 36 35 37 39 39 40 42 44 45 43 39 35 32 30 29 28 27 26 26 24
60 61 61 59 57 57 58 58 58 57 55 53 51 51 51 50 48 48 47 46 47 49 50 52 55 55 53 51 50 49 50 49 50 49 47 45 43 42 41 40 39 39 38 39 41 42 42 43 45 45 43 38 35 33 31 29 28 28 27 27 26 26
60 60 60 60 59 59 58 58 58 56 54 53 52 52 52 51 49 48 49 50 51 51 53 56 57 56 53 52 50 50 50 49 48 47 45 44 43 41 40 40 40 40 40 42 43 43 45 46 45 44 39 33 32 32 30 28 27 26 26 25 25 25
58 58 59 60 60 59 57 57 56 54 54 54 53 52 51 50 49 49 50 52 52 52 53 55 55 54 53 51 49 49 49 48 46 45 43 43 42 41 41 41 41 41 41 43 44 45 47 46 44 40 34 30 31 31 29 27 24 24 24 23 21 20
56 55 56 57 58 56 55 54 53 53 53 53 51 50 50 50 50 51 52 52 52 52 52 53 52 51 50 49 48 47 46 45 43 42 41 40 40 40 40 40 40 40 41 42 44 46 47 45 42 37 32 30 29 29 26 25 23 22 21 19 18 18
53 52 53 53 53 52 53 53 53 53 52 51 50 51 52 52 53 53 53 52 52 52 52 52 50 48 46 46 45 44 42 41 39 39 39 39 39 39 38 38 38 39 41 43 45 46 46 44 40 35 31 29 28 26 23 23 22 19 17 17 17 18
51 50 50 49 50 51 52 51 51 52 52 51 51 52 53 54 54 53 52 50 50 50 50 48 46 44 43 42 41 40 40 39 40 40 40 39 38 38 38 38 39 40 42 44 46 46 45 42 38 34 30 28 26 23 21 23 22 19 17 15 16 18
46 46 47 48 48 48 48 48 49 51 51 50 49 50 51 52 51 50 48 47 47 46 45 43 42 41 40 39 38 38 39 39 40 40 40 39 39 38 39 41 41 42 44 45 46 46 43 40 37 32 28 27 26 23 22 23 23 21 18 15 16 19
39 39 41 42 42 43 43 43 44 44 44 43 44 45 46 46 46 45 44 44 43 42 40 39 38 37 37 36 36 37 38 39 39 40 40 41 41 41 42 43 43 43 45 46 46 45 42 38 35 30 27 25 24 23 22 23 23 21 18 16 17 19
36 37 40 41 41 41 39 37 38 38 38 39 41 41 42 42 42 41 40 40 39 38 37 36 35 34 34 35 36 37 38 39 41 41 42 43 43 43 44 45 46 46 47 47 45 43 40 35 31 28 27 25 23 22 23 25 25 23 21 18 16 15
39 41 42 41 39 37 35 35 36 37 38 37 36 36 37 38 38 38 38 37 37 36 35 34 34 34 34 35 36 37 39 41 43 44 45 45 45 45 46 47 48 48 48 47 44 40 36 32 29 27 27 25 25 25 25 26 27 28 25 20 16 15
39 38 38 37 36 35 35 35 36 38 38 35 33 33 33 33 33 34 35 36 36 36 35 34 33 33 34 35 37 39 40 42 44 45 46 46 46 47 47 48 49 48 47 44 41 37 33 29 28 29 29 28 27 27 27 27 28 28 26 21 18 19
38 37 37 36 35 36 37 38 39 41 39 35 34 34 34 33 32 31 32 33 34 35 35 34 33 33 33 36 38 40 41 42 43 44 44 45 45 46 47 48 48 46 44 41 39 35 32 30 27 28 31 31 29 27 27 28 29 29 26 23 23 25
40 39 39 38 38 39 39 39 39 39 38 36 36 36 36 36 34 32 31 30 31 33 34 34 34 34 34 36 38 39 41 42 42 42 42 42 42 43 45 46 46 45 42 39 35 32 31 32 31 28 30 32 31 29 28 29 31 31 29 28 28 29
40 41 42 42 43 42 40 39 39 38 38 38 38 38 38 37 35 33 31 30 31 32 33 35 35 36 36 37 38 39 40 40 40 39 38 38 39 41 43 46 46 44 40 35 31 29 29 32 35 31 29 31 31 30 31 32 33 33 32 32 31 31
42 42 44 45 44 43 40 39 40 38 38 39 40 40 39 38 36 34 32 32 32 32 33 35 36 37 37 38 38 39 38 36 35 34 34 36 37 40 44 46 43 39 35 31 27 26 27 29 34 34 31 32 32 31 31 33 34 34 34 35 36 36
45 44 44 44 43 41 41 40 39 37 38 40 42 41 40 39 38 36 35 34 34 33 33 33 34 35 36 37 37 36 34 32 31 31 32 34 37 41 43 41 36 34 32 29 26 25 25 26 31 36 34 32 34 34 33 33 34 35 36 37 39 39
51 48 46 45 43 42 41 42 41 39 39 40 40 40 40 39 38 38 38 37 36 35 34 33 33 33 34 35 36 35 33 31 30 31 32 34 37 39 38 34 31 32 32 30 28 25 24 24 27 34 37 36 35 37 37 36 35 36 37 38 40 40
51 51 48 46 46 45 44 46 46 43 41 40 39 39 39 38 38 38 39 39 39 38 36 34 33 33 34 35 35 34 33 31 31 31 31 33 36 37 34 31 30 31 31 31 29 27 25 24 24 29 36 40 39 39 39 38 38 37 37 38 40 41
49 50 49 47 47 46 46 48 49 47 44 42 41 41 40 40 40 41 42 42 42 40 39 37 35 33 34 34 34 33 33 31 30 30 30 32 34 33 31 30 30 30 30 30 29 28 27 26 25 25 30 37 42 43 42 41 40 39 39 39 39 41
49 50 50 48 47 46 47 47 48 48 47 46 44 44 43 43 44 44 44 44 43 42 40 39 37 35 34 34 34 33 32 31 30 30 31 31 30 29 28 28 29 29 28 28 28 28 27 27 27 27 27 31 37 42 45 45 45 44 44 43 43 43
48 50 50 50 48 47 46 46 47 48 48 48 47 46 45 45 44 43 43 43 43 42 40 39 37 35 35 35 34 33 31 30 30 31 30 28 27 27 27 27 28 27 27 27 27 27 27 27 27 28 29 30 32 36 41 44 46 47 48 48 47 47
48 48 48 48 48 48 46 45 46 47 48 48 48 47 45 43 42 41 40 42 42 40 38 36 36 35 35 36 36 34 33 32 32 33 32 30 30 30 30 30 30 29 28 27 26 26 25 25 26 27 28 30 31 33 35 38 40 43 45 46 47 48
48 47 47 46 47 48 47 46 46 47 47 48 47 46 43 41 39 38 39 39 39 38 37 36 35 35 35 36 37 38 37 37 37 37 37 37 36 36 35 35 35 34 32 30 27 25 24 24 25 26 27 28 30 31 32 33 34 36 38 40 42 44
47 47 47 47 48 50 50 48 47 47 47 47 46 44 42 40 38 38 38 38 38 37 37 37 36 36 36 37 38 40 41 41 42 43 43 43 42 41 40 39 39 38 36 32 28 26 25 25 25 26 28 29 29 30 31 31 31 32 32 34 36 38
47 48 49 50 51 53 54 52 50 49 47 45 44 42 41 41 40 39 38 38 38 38 37 37 38 37 37 38 39 41 42 44 45 46 46 46 45 45 45 44 42 41 38 35 31 28 26 25 25 26 28 30 31 31 31 32 32 32 32 32 34 36
47 48 49 49 50 52 55 54 52 51 50 48 45 43 42 43 43 42 40 40 40 39 38 38 39 39 40 40 41 42 44 45 46 47 48 48 48 49 48 46 45 44 42 38 34 31 28 27 26 26 28 29 31 31 32 34 34 34 33 34 35 36
45 46 46 46 47 50 53 53 53 52 52 51 49 46 47 47 45 43 42 41 41 41 40 40 41 41 42 43 44 45 45 46 47 49 50 50 50 49 49 48 46 45 44 42 39 35 32 30 28 28 29 30 31 31 32 34 36 36 36 36 37 39